Regional Weather Roundup
Issued by NWS Cleveland, OH

Home | Current Version | Previous Version | Text Only | Print | Product List | Glossary Off
Versions: 1 2 3 4 5 6 7 8 9 10 11 12 13 14 15 16 17 18 19 20 21 22 23 24 25 26 27 28 29 30 31 32 33 34 35 36 37 38 39 40 41 42 43 44 45 46 47 48 49 50

000
ASUS41 KCLE 250810
RWRCLE
OHIO REGIONAL WEATHER ROUNDUP
NATIONAL WEATHER SERVICE CLEVELAND, OH
400 AM EDT THU AUG 25 2016

NOTE: "FAIR" INDICATES FEW OR NO CLOUDS BELOW 12,000 FEET WITH NO
SIGNIFICANT WEATHER AND/OR OBSTRUCTIONS TO VISIBILITY.

OHZ001>008-015>018-024>027-034-035-043-044-250900-
   NORTHWEST OHIO

CITY           SKY/WX    TMP DP  RH WIND       PRES   REMARKS
DEFIANCE       CLEAR     72  69  90 CALM      30.01R
FINDLAY        CLEAR     72  68  87 SW7       30.02R
TOLEDO EXPRESS CLEAR     72  72 100 SW8       29.99R
TOLEDO EXEC    CLEAR     73  73 100 SW7       30.01R
LIMA           CLEAR     72  72 100 SW7       30.04R
$$

OHZ009>014-019>023-028>033-038-089-250900-
   NORTHEAST OHIO

CITY           SKY/WX    TMP DP  RH WIND       PRES   REMARKS
CLE-HOPKINS    CLOUDY    75  71  87 W10       30.00S
CLE-LAKEFRONT  CLOUDY    75  72  90 SW13      29.96R
CUY CO. ARPT   NOT AVBL
LORAIN-ELYRIA  CLOUDY    74  71  91 W10       30.00S
ASHTABULA      CLOUDY    72  72 100 SW9       29.98F
AKRON-CANTON   CLOUDY    73  70  90 W8        30.03R
WOOSTER        CLOUDY    73  71  93 W6        30.03S
MANSFIELD      CLOUDY    73  72  96 SW8       30.04R
YOUNGSTOWN     TSTM      72  70  93 S13G20    30.02S
$$

OHZ042-051>053-060>062-070>072-077>081-250900-
  SOUTHWEST OHIO

CITY           SKY/WX    TMP DP  RH WIND       PRES   REMARKS
CINC-COVINGTON CLOUDY    77  74  90 SW7       30.09R
CINC-LUNKEN    CLOUDY    77  74  90 SW8       30.07S
HAMILTON       PTCLDY    79  73  82 SW7       30.07R
DAYTON         MOCLDY    73  71  93 W3        30.08R
WRIGHT-PAT AFB MOCLDY    77  74  92 SW9       30.06R
DAYTON GENERAL PTCLDY    78  72  81 SW13      30.07R
WILMINGTON     PTCLDY    75  72  90 SW13      30.07S
$$

OHZ036-037-039>041-045>050-054>059-063>069-073>076-082>088-250900-
  CENTRAL AND SOUTHEAST OHIO

CITY           SKY/WX    TMP DP  RH WIND       PRES   REMARKS
COLUMBUS       LGT RAIN  72  71  97 SW8       30.05R
OSU AIRPORT    CLOUDY    73  71  93 SW7       30.05S
BOLTON FIELD   CLOUDY    71  71  97 SW3       30.06S
RICKENBACK AFB TSTM      71  71 100 NW3       30.06R
NEWARK         LGT RAIN  74  72  93 W12       30.05S FOG
MARION         CLOUDY    71  69  93 SW8       30.05R
LANCASTER      TSTM      73  72  96 N8        30.06F FOG
ZANESVILLE     CLOUDY    73  70  90 SW6       30.06R
NEW PHILLY     CLOUDY    77  70  79 SW6       30.04R
$$




USA.gov is the U.S. government's official web portal to all federal, state and local government web resources and services.